EW3360 Weather Reports


time (UTC)temp
C
wind
direction
speed
KPH
gust
KPH
rain 1hr
cm
rain 24hr
cm
rain mn
cm
humidity
%
barometer
mb
20190620233033 20 73 0.0 0.0 0.00 0.15 0.05 44 1007.9
20190620231519 21 73 0.0 0.0 0.00 0.15 0.05 45 1007.8
20190620230132 21 73 0.0 0.0 0.00 0.15 0.05 56 1008.0
20190620224643 21 68 0.0 0.0 0.00 0.20 0.05 63 1007.5
20190620223059 21 51 0.0 0.0 0.00 0.20 0.05 66 1007.5
20190620221649 21 5 0.0 0.0 0.00 0.20 0.05 61 1007.8
20190620220204 21 55 0.0 0.0 0.00 0.20 0.05 67 1007.7
20190620214558 21 54 0.0 0.0 0.00 0.20 0.05 69 1007.7
20190620213123 22 81 0.0 0.0 0.00 0.20 0.05 70 1007.9
20190620211544 22 162 0.0 1.6 0.00 0.20 0.05 70 1007.8
20190620210042 22 61 0.0 4.8 0.00 0.20 0.05 71 1007.4
20190620204603 22 132 0.0 0.0 0.00 0.20 0.05 71 1007.5
20190620203023 22 26 0.0 8.0 0.00 0.20 0.05 68 1007.8
20190620201519 22 110 0.0 0.0 0.00 0.20 0.05 70 1007.8
20190620200008 22 96 0.0 4.8 0.00 0.20 0.05 69 1007.9
20190620194641 22 289 0.0 0.0 0.00 0.20 0.05 70 1007.9
20190620193144 22 171 0.0 0.0 0.00 0.20 0.05 69 1007.8
20190620191722 22 313 0.0 0.0 0.00 0.20 0.05 69 1008.2
20190620190118 22 72 0.0 0.0 0.00 0.20 0.05 65 1008.2
20190620184702 21 81 0.0 0.0 0.00 0.20 0.05 63 1008.4
20190620183115 21 303 0.0 0.0 0.00 0.20 0.05 59 1008.7
20190620181548 22 132 0.0 0.0 0.00 0.20 0.05 64 1008.8
20190620180058 22 132 0.0 0.0 0.00 0.20 0.05 66 1009.0
20190620174609 23 132 0.0 0.0 0.00 0.20 0.05 67 1008.7
20190620173026 23 119 0.0 0.0 0.00 0.20 0.05 69 1008.4
20190620171518 22 37 0.0 0.0 0.00 0.20 0.05 66 1008.6
20190620170021 23 306 0.0 0.0 0.00 0.20 0.05 67 1008.9
20190620163029 23 180 0.0 0.0 0.00 0.23 0.05 65 1008.7
20190620161641 22 136 0.0 0.0 0.00 0.23 0.05 67 1009.0
20190620160202 23 50 0.0 0.0 0.00 0.23 0.05 64 1008.8
20190620154646 23 194 0.0 0.0 0.00 0.23 0.05 51 1008.8
20190620153133 22 13 0.0 0.0 0.00 0.23 0.05 32 1008.8
20190620151654 21 98 0.0 0.0 0.00 0.23 0.05 34 1008.9
20190620150101 21 344 0.0 0.0 0.00 0.23 0.05 38 1008.9
20190620144550 21 94 0.0 0.0 0.00 0.25 0.05 1 1008.6
20190620143046 21 54 0.0 0.0 0.00 0.25 0.05 1 1008.6
20190620141549 20 89 0.0 0.0 0.00 0.25 0.05 1 1008.3
20190620140037 20 85 0.0 0.0 0.00 0.25 0.05 1 1008.4
20190620134550 20 169 0.0 0.0 0.03 0.28 0.05 1 1008.5
20190620133028 18 169 0.0 0.0 0.03 0.28 0.05 1 1008.5
20190620131543 18 169 0.0 0.0 0.03 0.28 0.05 1 1008.8
20190620130004 18 169 0.0 0.0 0.03 0.28 0.05 1 1008.9
20190620124722 18 169 0.0 0.0 0.00 0.25 0.03 1 1009.9
20190620123140 17 169 0.0 0.0 0.00 0.25 0.03 1 1009.0
20190620121631 17 169 0.0 0.0 0.00 0.25 0.03 1 1008.8
20190620120121 16 169 0.0 0.0 0.00 0.25 0.03 1 1008.6
20190620114634 16 169 0.0 0.0 0.00 0.25 0.03 1 1008.6
20190620113129 16 169 0.0 0.0 0.00 0.25 0.03 1 1008.6
20190620111622 15 169 0.0 0.0 0.00 0.25 0.03 1 1008.5
20190620110134 15 169 0.0 0.0 0.00 0.25 0.03 1 1008.5
20190620104543 15 169 0.0 0.0 0.00 0.25 0.03 1 1008.6
20190620103056 15 169 0.0 0.0 0.00 0.25 0.03 1 1008.5
20190620101544 15 169 0.0 0.0 0.00 0.25 0.03 1 1008.6
20190620100012 15 169 0.0 0.0 0.00 0.25 0.03 1 1008.4
20190620094530 16 169 0.0 0.0 0.00 0.25 0.03 1 1008.2
20190620093147 16 169 0.0 0.0 0.00 0.25 0.03 1 1008.2
20190620091802 16 169 0.0 0.0 0.00 0.25 0.03 1 1008.0
20190620090136 16 169 0.0 0.0 0.00 0.25 0.03 1 1007.9
20190620084600 16 169 0.0 0.0 0.03 0.25 0.03 1 1007.6
20190620083107 16 169 0.0 0.0 0.03 0.25 0.03 1 1007.7
20190620081628 16 169 0.0 0.0 0.03 0.25 0.03 1 1008.1
20190620080040 16 169 0.0 0.0 0.03 0.25 0.03 1 1008.0
20190620074548 16 169 0.0 0.0 0.00 0.23 0.00 1 1008.2
20190620073037 17 169 0.0 0.0 0.00 0.23 0.00 1 1008.4
20190620071602 17 169 0.0 0.0 0.00 0.23 0.00 1 1008.7
20190620070045 17 31 0.0 0.0 0.00 0.23 0.00 1 1009.3
20190620064513 17 31 0.0 0.0 0.00 0.25 0.00 1 1008.4
20190620063010 17 31 0.0 0.0 0.00 0.25 0.00 1 1008.3
20190620061507 17 31 0.0 0.0 0.00 0.25 0.00 1 1008.5
20190620060328 17 31 0.0 0.0 0.00 0.25 0.00 1 1008.6
20190620054620 17 31 0.0 0.0 0.00 0.25 0.00 1 1008.7
20190620053118 17 31 0.0 0.0 0.00 0.25 0.00 1 1008.8
20190620051616 17 31 0.0 0.0 0.00 0.25 0.00 1 1008.8
20190620050118 17 31 0.0 0.0 0.00 0.25 0.00 1 1008.9
20190620044655 17 31 0.0 0.0 0.00 0.25 0.00 1 1009.0
20190620043107 18 31 0.0 0.0 0.00 0.25 0.00 1 1009.1
20190620041546 18 31 0.0 0.0 0.00 0.25 0.00 1 1009.0
20190620040043 18 31 0.0 0.0 0.00 0.25 0.00 1 1008.9
20190620034524 18 31 0.0 0.0 0.00 0.25 0.25 1 1009.0
20190620033015 18 31 0.0 0.0 0.00 0.25 0.25 1 1009.0
20190620031510 18 31 0.0 0.0 0.00 0.25 0.25 1 1009.0
20190620030020 18 31 0.0 0.0 0.00 0.25 0.25 1 1009.1
20190620024510 19 31 0.0 0.0 0.00 0.25 0.25 1 1009.2
20190620023003 19 31 0.0 0.0 0.00 0.25 0.25 1 1009.2
20190620021652 20 31 0.0 0.0 0.00 0.25 0.25 1 1008.9
20190620020202 20 31 0.0 0.0 0.00 0.25 0.25 1 1009.0
20190620014614 20 31 0.0 0.0 0.00 0.25 0.25 1 1009.0
20190620013123 20 31 0.0 0.0 0.00 0.25 0.25 1 1009.0
20190620011617 20 31 0.0 0.0 0.00 0.25 0.25 1 1009.0
20190620010056 20 31 0.0 0.0 0.00 0.25 0.25 1 1009.0
20190620004642 21 31 0.0 0.0 0.00 0.25 0.25 1 1009.0
20190620003103 21 31 0.0 0.0 0.00 0.25 0.25 1 1009.2
20190620001656 21 31 0.0 0.0 0.10 0.25 0.25 1 1009.0
20190620000057 21 31 0.0 0.0 0.10 0.25 0.25 1 1008.7
20190619234557 21 31 0.0 0.0 0.10 0.25 0.25 1 1008.6